sat.trackr.live / text

‹ back to catalog

STARLINK-30480

NORAD 58069 · 2023-158U

PAYLOAD ACTIVE UNKNOWN

§ Identity

Operator
Country
US
Launch date
2023-10-13
Launch site
AFETR
Launch vehicle
Mass (kg)
RCS (m²)

Purposes: comms

External: N2YO · Heavens-Above · Gunter

§ Orbital elements

Epoch: 2026-05-25T01:51:13.149792Z

Period
94.27 min
Inclination
43.0037°
Eccentricity
0.0001638
Mean motion
15.27579202 rev/d
Perigee alt
481.9 km
Apogee alt
484.2 km
Semi-major
6,861.2 km
B*
6.1060e-5
RAAN
173.4348°
Arg perigee
273.3240°
Mean anomaly
86.7424°
Rev number
14,692

§ Raw data

STARLINK-304801 58069U 23158U   26145.07723553  .00001418  00000+0  61060-4 0  99972 58069  43.0037 173.4348 0001638 273.3240  86.7424 15.27579202146929

JSON: /api/v1/satellites/58069 · /tle

For live sub-satellite position, see the globe view (requires WebGL).

§ Visibility from observer

Set your observer location to see the next 7 days of passes ≥ 10°. The values pass through the URL so the page stays shareable.

No JS? Fill the form by hand. The geolocation button needs JavaScript.